Flag for Australia Weather past 2 weeks in Launceston, Tasmania, Australia

Now
52 °F

Light rain. Partly cloudy.


Feels Like: 45 °F
Forecast: 44 / 55 °F
Wind: 23 mph from North

Location: Launceston Airport

Current Time: Jul 31, 2014 at 3:26:30 AM

Latest Report: Jul 31, 2014 at 3:02 AM


Visibility: N/A

Pressure: 29.33 "Hg

Humidity: 94%

Dew point: 50 °F

Location of LauncestonLocation

Historic Weather in Launceston — Graph

°F

Launceston temperature yesterday

Maximum temperature yesterday: 55 °F (at 11:00 AM)
Minimum temperature yesterday: 45 °F (at 5:00 AM)
Average temperature yesterday: 51 °F

Past Weeks' High & Low Weather Summary

 TemperatureHumidityPressure
High57 °F (Jul 25, 1:30 PM)100% (Jul 16, 10:30 AM)30.33 "Hg (Jul 16, 10:30 AM)
Low27 °F (Jul 21, 8:00 AM)50% (Jul 18, 11:00 AM)29.24 "Hg (Jul 29, 5:00 PM)
Average44 °F86%29.96 "Hg
* Reported Jul 16 2:00 AM — Jul 31 2:02 AM, Launceston, Weather by CustomWeather, © 2014

Note: Actual official high and low records may vary slightly from our data, if they occured in-between our weather recording intervals... More about our weather records

Advertising

Launceston weather history for previous 24 hours

 ConditionsComfort  
Time TempWeatherWind HumidityBarometerVisibility
2:02 AM
Jul 31
52 °FLight rain. Partly cloudy.31 mph94%29.33 "Hg2 mi
1:00 AM52 °FLight rain. Partly cloudy.33 mph94%29.36 "Hg3 mi
12:30 AM52 °FPassing clouds.31 mph94%29.39 "Hg3 mi
12:00 AM52 °FSprinkles. Partly cloudy.23 mph94%29.39 "Hg4 mi
11:30 PM
Jul 30
52 °FSprinkles. Partly cloudy.25 mph94%29.42 "HgN/A
11:00 PM52 °FSprinkles. Partly cloudy.25 mph88%29.42 "Hg6 mi
10:00 PM52 °FPartly cloudy.26 mph94%29.45 "HgN/A
9:30 PM52 °FPassing clouds.29 mph82%29.45 "HgN/A
9:00 PM54 °FPassing clouds.29 mph77%29.45 "HgN/A
8:00 PM52 °FLight rain. Partly cloudy.26 mph94%29.45 "Hg3 mi
7:00 PM52 °FPassing clouds.25 mph88%29.47 "HgN/A
6:30 PM54 °FSprinkles. Partly cloudy.25 mph77%29.47 "HgN/A
6:00 PM54 °FPassing clouds.22 mph82%29.47 "HgN/A
5:30 PM52 °FPartly cloudy.24 mph88%29.47 "HgN/A
5:04 PM54 °FDrizzle. Overcast.25 mph82%29.47 "HgN/A
4:47 PM54 °FPartly cloudy.26 mph82%29.45 "HgN/A
4:30 PM54 °FPartly cloudy.22 mph82%29.45 "HgN/A
4:00 PM54 °FBroken clouds.25 mph88%29.45 "HgN/A
3:30 PM52 °FBroken clouds.26 mph94%29.47 "HgN/A
3:00 PM52 °FScattered clouds.22 mph94%29.47 "HgN/A
2:50 PM54 °FBroken clouds.23 mph88%29.47 "HgN/A
2:30 PM52 °FSprinkles. Cloudy.23 mph94%29.47 "Hg4 mi
2:01 PM52 °FLight rain. Broken clouds.25 mph88%29.50 "Hg3 mi
1:00 PM54 °FBroken clouds.26 mph82%29.50 "HgN/A
12:00 PM55 °FBroken clouds.29 mph67%29.53 "HgN/A
11:00 AM55 °FBroken clouds.25 mph72%29.56 "HgN/A
10:04 AM54 °FScattered clouds.22 mph72%29.56 "HgN/A
9:00 AM50 °FBroken clouds.18 mph82%29.56 "Hg6 mi
8:30 AM50 °FBroken clouds.17 mph76%29.56 "Hg6 mi
8:00 AM48 °FBroken clouds.17 mph82%29.56 "HgN/A
7:30 AM48 °FScattered clouds.18 mph76%29.56 "Hg6 mi
7:00 AM46 °FSunny.17 mph76%29.56 "HgN/A
6:30 AM46 °FSunny.18 mph71%29.56 "HgN/A
6:00 AM46 °FClear.17 mph71%29.56 "HgN/A
5:30 AM46 °FClear.10 mph71%29.56 "HgN/A
5:00 AM45 °FClear.9 mph76%29.53 "HgN/A
4:30 AM46 °FClear.15 mph66%29.53 "HgN/A
4:00 AM48 °FClear.21 mph66%29.50 "HgN/A
3:00 AM50 °FClear.21 mph62%29.47 "HgN/A
Weather by CustomWeather, © 2014

See weather overviewHow to use our weather pages